Location: ??????
(55.7522°N, 37.6156°E)
Time: 16:34:32
(UTC+00:00)

NOSS 2-1 (D) - Pass Details

Date: 14 June 2025
Orbit: 377 x 1695 km, 63.3° (Epoch: 12 July)

Event Time Altitude Azimuth Distance (km) Brightness Sun altitude
Rises 22:03:46 0° 301° (WNW) 2,394 6.9 -10.6°
Reaches altitude 10° 22:05:53 10° 287° (WNW) 1,623 5.8 -10.6°
Maximum altitude 22:08:48 24° 231° (SW) 1,125 4.5 -10.5°
Enters shadow 22:11:23 15° 185° (S) 1,681 5.1 -10.5°
